Louisville, KY

8:57 AM EST on December 07, 2016 (GMT -0500)
Bowman

Weather History for KLOU - July, 2013

Change the Weather History Date:

Tuesday, July 30, 2013

  Actual Average Record
Temperature  
Mean Temperature 73 °F 78 °F  
Max Temperature 82 °F 87 °F 105 °F (1999)
Min Temperature 63 °F 68 °F 55 °F (1965)
Degree Days  
Heating Degree Days 0 0  
Month to date heating degree days 0 0  
Since 1 June heating degree days 0 3  
Since 1 July heating degree days 0 0  
Cooling Degree Days 8 13  
Month to date cooling degree days 338 390  
Year to date cooling degree days 821 842  
Since 1 June cooling degree days 635 695  
Growing Degree Days 21 (Base 50)    
Moisture  
Dew Point 61 °F    
Average Humidity 71    
Maximum Humidity 87    
Minimum Humidity 54    
Precipitation  
Precipitation 0.14 in 0.13 in 1.41 in (2011)
Month to date precipitation 6.05 4.05  
Year to date precipitation 33.38 28.11  
Sea Level Pressure  
Sea Level Pressure 30.17 in    
Wind  
Wind Speed 2 mph (SSE)    
Max Wind Speed 8 mph    
Max Gust Speed 13 mph    
Visibility 10 miles    
Events Rain    
T = Trace of Precipitation, MM = Missing Value Source: NWS Daily Summary

Daily Weather History Graph

Daily Weather History Graph

Search for Another Location

Airport or City:

Trip Planner

Search our weather history database for the weather conditions in past years. The results will help you decide how hot, cold, wet, or windy it might be!

Date:

Astronomy

Jul. 30, 2013 Rise Set
Actual Time 6:43 AM EDT 8:53 PM EDT
Civil Twilight 6:14 AM EDT 9:23 PM EDT
Nautical Twilight 5:38 AM EDT 9:59 PM EDT
Astronomical Twilight 4:58 AM EDT 10:38 PM EDT
Moon 1:00 AM EDT (7/30) 3:13 PM EDT (7/30)
Length of Visible Light 15h 09m
Length of Day
14h 10m
Last Quarter, 41% of the Moon is Illuminated
Jul 30
Last Quarter
Aug 6
New
Aug 14
First Quarter
Aug 20
Full
Aug 28
Last Quarter

Hourly Weather History & Observations

Time (EDT) Temp. Dew Point Humidity Pressure Visibility Wind Dir Wind Speed Gust Speed Precip Events Conditions
12:53 AM 66.9 °F 57.9 °F 73% 30.20 in 10.0 mi Calm Calm - N/A   Clear
1:53 AM 64.9 °F 57.9 °F 78% 30.20 in 10.0 mi Calm Calm - N/A   Clear
2:53 AM 64.9 °F 57.9 °F 78% 30.18 in 10.0 mi Calm Calm - N/A   Clear
3:53 AM 63.0 °F 59.0 °F 87% 30.18 in 10.0 mi Calm Calm - N/A   Clear
4:53 AM 64.0 °F 59.0 °F 84% 30.19 in 10.0 mi Calm Calm - N/A   Clear
5:53 AM 64.0 °F 59.0 °F 84% 30.19 in 10.0 mi Calm Calm - N/A   Clear
6:53 AM 64.9 °F 60.1 °F 84% 30.21 in 10.0 mi Calm Calm - N/A   Clear
7:53 AM 66.0 °F 60.1 °F 81% 30.21 in 10.0 mi ESE 3.5 mph - N/A   Partly Cloudy
8:53 AM 66.9 °F 60.1 °F 79% 30.21 in 10.0 mi Calm Calm - N/A   Clear
9:53 AM 69.1 °F 61.0 °F 75% 30.21 in 10.0 mi Calm Calm - 0.00 in   Partly Cloudy
10:53 AM - - N/A% 30.21 in - North - - N/A   Unknown
12:53 PM 77.0 °F 62.1 °F 60% 30.19 in 10.0 mi Variable 5.8 mph - N/A   Unknown
1:53 PM 79.0 °F 60.1 °F 52% 30.18 in 10.0 mi SSE 6.9 mph - N/A   Partly Cloudy
2:53 PM - - N/A% 30.18 in - North - - N/A   Unknown
3:53 PM 78.1 °F 61.0 °F 56% 30.16 in 10.0 mi South 4.6 mph - N/A   Partly Cloudy
4:53 PM 78.1 °F 60.1 °F 54% 30.15 in 10.0 mi South 4.6 mph - N/A   Mostly Cloudy
5:53 PM 73.9 °F 64.9 °F 73% 30.15 in 9.0 mi SSE 4.6 mph - 0.01 in Rain Light Rain
6:53 PM 71.1 °F 66.0 °F 84% 30.15 in 5.0 mi Calm Calm - 0.04 in Rain Rain
7:53 PM 69.1 °F 64.9 °F 87% 30.15 in 9.0 mi Calm Calm - 0.05 in Rain Light Rain
8:53 PM 69.1 °F 64.9 °F 87% 30.11 in 10.0 mi East 4.6 mph - 0.02 in Rain Light Rain
9:53 PM 68.0 °F 64.9 °F 90% 30.12 in 10.0 mi Calm Calm - 0.01 in Rain Light Rain
10:53 PM 68.0 °F 66.0 °F 93% 30.12 in 10.0 mi Calm Calm - 0.00 in   Overcast
11:53 PM 69.1 °F 64.0 °F 84% 30.14 in 9.0 mi SSE 3.5 mph - 0.00 in Rain Light Rain